Home > Weather > Stockholm > Past weeks

Flag for Sweden Past Weather in Stockholm, Sweden — Yesterday and Last 2 Weeks

Now
57 °F

Cool.


Feels Like: 57 °F
Forecast: 59 / 73 °F
Wind: 3 mph from Southwest

Location: Stockholm Bromma Airport

Current Time: Jul 29, 2016 at 2:25:02 AM

Latest Report: Jul 29, 2016 at 1:50 AM


Visibility: N/A

Pressure: 29.83 "Hg

Humidity: 100%

Dew Point: 57 °F

Location of StockholmLocation

Past Weather in Stockholm — Graph

°F

Stockholm Temperature Yesterday

Maximum temperature yesterday: 75 °F (at 3:50 PM)
Minimum temperature yesterday: 61 °F (at 12:50 AM)
Average temperature yesterday: 67 °F

High & Low Weather Summary for the Past Weeks

 TemperatureHumidityPressure
High84 °F (Jul 24, 1:50 PM)100% (Jul 16, 2:50 AM)30.12 "Hg (Jul 16, 2:50 AM)
Low48 °F (Jul 21, 3:50 AM)27% (Jul 23, 11:20 AM)29.77 "Hg (Jul 14, 1:20 AM)
Average66 °F66%29.97 "Hg
* Reported Jul 14 1:20 AM — Jul 29 1:20 AM, Stockholm, Weather by CustomWeather, © 2016

Note: Actual official high and low records may vary slightly from our data, if they occured in-between our weather recording intervals... More about our weather records

Advertising

Stockholm Weather History for the Previous 24 Hours

Scroll right to see more
 ConditionsComfort  
Time TempWeatherWind HumidityBarometerVisibility
1:20 AM
Fri, Jul 29
59 °FCool.5 mph100%29.86 "HgN/A
12:50 AM61 °FCool.5 mph94%29.83 "HgN/A
12:20 AM61 °FCool.3 mph94%29.83 "HgN/A
11:50 PM
Thu, Jul 28
64 °FPassing clouds.3 mph88%29.86 "HgN/A
11:20 PM64 °FPartly cloudy.5 mph88%29.86 "HgN/A
10:50 PM64 °FPartly cloudy.3 mph83%29.86 "HgN/A
10:20 PM64 °FPassing clouds.5 mph83%29.86 "HgN/A
9:50 PM64 °FSunny.3 mph83%29.83 "Hg10 mi
9:20 PM66 °FSunny.3 mph78%29.83 "Hg10 mi
8:50 PM66 °FSunny.6 mph78%29.83 "Hg10 mi
8:20 PM66 °FSunny.8 mph73%29.83 "Hg10 mi
7:50 PM68 °FSunny.9 mph69%29.83 "Hg10 mi
7:20 PM70 °FSunny.8 mph64%29.83 "Hg10 mi
6:50 PM70 °FSunny.9 mph64%29.83 "Hg10 mi
6:20 PM68 °FPassing clouds.7 mph69%29.83 "HgN/A
5:50 PM70 °FScattered clouds.9 mph60%29.83 "HgN/A
5:20 PM70 °FPassing clouds.12 mph60%29.83 "HgN/A
4:50 PM72 °FPassing clouds.12 mph57%29.83 "HgN/A
4:20 PM73 °FPassing clouds.12 mph53%29.83 "HgN/A
3:50 PM75 °FPassing clouds.8 mph50%29.83 "HgN/A
3:20 PM73 °FPassing clouds.8 mph50%29.83 "HgN/A
2:50 PM73 °FPassing clouds.8 mph53%29.86 "HgN/A
2:20 PM72 °FScattered clouds.9 mph57%29.86 "HgN/A
1:50 PM72 °FScattered clouds.7 mph61%29.86 "HgN/A
1:20 PM70 °FBroken clouds.10 mph64%29.89 "HgN/A
12:50 PM68 °FPassing clouds.10 mph64%29.89 "HgN/A
12:20 PM70 °FMore clouds than sun.10 mph64%29.89 "HgN/A
11:50 AM68 °FMostly cloudy.9 mph69%29.89 "HgN/A
11:20 AM66 °FBroken clouds.10 mph78%29.89 "HgN/A
10:50 AM70 °FPartly sunny.9 mph60%29.89 "HgN/A
10:20 AM70 °FPartly sunny.10 mph57%29.89 "HgN/A
9:50 AM68 °FPassing clouds.10 mph64%29.89 "HgN/A
9:20 AM68 °FSunny.8 mph64%29.89 "Hg10 mi
8:50 AM66 °FSunny.7 mph68%29.89 "Hg10 mi
8:20 AM66 °FSunny.7 mph68%29.89 "Hg10 mi
7:50 AM66 °FSunny.8 mph73%29.89 "Hg10 mi
7:20 AM66 °FSunny.7 mph78%29.89 "Hg10 mi
6:50 AM66 °FSunny.7 mph78%29.89 "Hg10 mi
6:20 AM66 °FSunny.7 mph78%29.89 "Hg10 mi
5:50 AM64 °FSunny.7 mph83%29.89 "Hg10 mi
5:20 AM64 °FOvercast.6 mph83%29.89 "HgN/A
4:50 AM64 °FOvercast.7 mph83%29.89 "HgN/A
4:20 AM64 °FMostly cloudy.8 mph83%29.89 "HgN/A
3:50 AM63 °FMostly cloudy.6 mph88%29.89 "HgN/A
3:20 AM61 °FPartly cloudy.6 mph88%29.92 "HgN/A
2:50 AM63 °FPassing clouds.5 mph83%29.92 "HgN/A
2:20 AM63 °FMostly cloudy.5 mph83%29.92 "HgN/A
Weather by CustomWeather, © 2016

See weather overviewHow to use our weather pages